Frenchville, ME

4:45 AM EDT on April 25, 2018 (GMT -0400)
Northern Aroostook Regional

Weather History for KFVE - July, 2013

Change the Weather History Date:

Monday, July 15, 2013

  Actual Average Record
Temperature  
Mean Temperature 78 °F 65 °F  
Max Temperature 91 °F 74 °F 91 °F (2013)
Min Temperature 64 °F 55 °F 46 °F (1997)
Degree Days  
Heating Degree Days 0    
Month to date heating degree days 13  
Since 1 July heating degree days 13  
Cooling Degree Days 13    
Month to date cooling degree days 66  
Year to date cooling degree days 91  
Growing Degree Days 28 (Base 50)    
Moisture  
Dew Point 59 °F    
Average Humidity 56    
Maximum Humidity 78    
Minimum Humidity 30    
Precipitation  
Precipitation 0.00 in 0.14 in 0.96 in (2006)
Month to date precipitation T 2.35  
Year to date precipitation 15.65 16.10  
Sea Level Pressure  
Sea Level Pressure 30.07 in    
Wind  
Wind Speed 9 mph (WNW)    
Max Wind Speed 21 mph    
Max Gust Speed 28 mph    
Visibility 10 miles    
Events      
T = Trace of Precipitation, MM = Missing Value Source: NWS Daily Summary

Daily Weather History Graph

Daily Weather History Graph

Search for Another Location

Airport or City:

Astronomy

Jul. 15, 2013 Rise Set
Actual Time 4:52 AM EDT 8:25 PM EDT
Civil Twilight 4:14 AM EDT 9:03 PM EDT
Nautical Twilight 3:22 AM EDT 9:54 PM EDT
Astronomical Twilight 2:13 AM EDT 11:02 PM EDT
Moon 12:42 PM EDT (7/15) 11:34 PM EDT (7/15)
Length of Visible Light 16h 49m
Length of Day
15h 32m
Waxing Crescent, 45% of the Moon is Illuminated
Jul 15
Waxing Crescent
Jul 15
First Quarter
Jul 22
Full
Jul 29
Last Quarter
Aug 6
New

Hourly Weather History & Observations

Time (EDT) Temp. Heat Index Dew Point Humidity Pressure Visibility Wind Dir Wind Speed Gust Speed Precip Events Conditions
12:53 AM 69.1 °F - 57.9 °F 68% 30.11 in 10.0 mi West 6.9 mph - N/A   Clear
1:53 AM 68.0 °F - 57.0 °F 68% 30.10 in 10.0 mi WNW 5.8 mph - N/A   Clear
2:53 AM 68.0 °F - 55.9 °F 65% 30.10 in 10.0 mi WNW 4.6 mph - N/A   Clear
3:53 AM 66.0 °F - 55.9 °F 70% 30.09 in 10.0 mi West 8.1 mph - N/A   Clear
4:53 AM 66.0 °F - 57.0 °F 73% 30.09 in 10.0 mi West 6.9 mph - N/A   Clear
5:53 AM 64.9 °F - 57.9 °F 78% 30.09 in 10.0 mi West 5.8 mph - N/A   Clear
6:53 AM 70.0 °F - 61.0 °F 73% 30.09 in 10.0 mi West 9.2 mph - N/A   Clear
7:53 AM 73.0 °F - 62.1 °F 68% 30.09 in 10.0 mi West 9.2 mph - N/A   Clear
8:53 AM 77.0 °F - 63.0 °F 62% 30.09 in 10.0 mi West 5.8 mph - N/A   Clear
9:53 AM 81.0 °F 82.2 °F 63.0 °F 54% 30.07 in 10.0 mi West 9.2 mph - N/A   Clear
10:53 AM 86.0 °F 86.3 °F 62.1 °F 44% 30.07 in 10.0 mi West 8.1 mph - N/A   Clear
11:53 AM 89.1 °F 88.2 °F 59.0 °F 36% 30.06 in 10.0 mi West 9.2 mph - N/A   Clear
12:53 PM 90.0 °F 88.6 °F 57.0 °F 33% 30.04 in 10.0 mi West 12.7 mph 24.2 mph N/A   Scattered Clouds
1:53 PM 91.0 °F 89.2 °F 55.9 °F 30% 30.03 in 10.0 mi NNW 15.0 mph 19.6 mph N/A   Clear
2:53 PM 88.0 °F 86.5 °F 55.9 °F 34% 30.02 in 10.0 mi WNW 13.8 mph - N/A   Clear
3:53 PM 89.1 °F 87.7 °F 57.0 °F 34% 30.03 in 10.0 mi NW 12.7 mph - N/A   Clear
4:53 PM 86.0 °F 85.4 °F 59.0 °F 40% 30.03 in 10.0 mi NNW 15.0 mph - N/A   Partly Cloudy
5:53 PM 86.0 °F 85.4 °F 59.0 °F 40% 30.04 in 10.0 mi NNW 12.7 mph 24.2 mph N/A   Clear
6:53 PM 82.9 °F 83.2 °F 60.1 °F 46% 30.04 in 10.0 mi NNW 12.7 mph 21.9 mph N/A   Clear
7:53 PM 79.0 °F - 61.0 °F 54% 30.05 in 10.0 mi NNW 10.4 mph - N/A   Clear
8:53 PM 75.0 °F - 62.1 °F 64% 30.07 in 10.0 mi NNW 9.2 mph - N/A   Clear
9:53 PM 73.0 °F - 61.0 °F 66% 30.08 in 10.0 mi WNW 5.8 mph - N/A   Clear
10:53 PM 72.0 °F - 61.0 °F 68% 30.09 in 10.0 mi NW 5.8 mph - N/A   Clear
11:53 PM 73.0 °F - 62.1 °F 68% 30.09 in 10.0 mi NW 9.2 mph - N/A   Clear